Wind_Speed
70 69 69 68 67 67 67 67 66 65 65 64 64 64 63 62 62 62 62 62 62 63 64 65 66 67 68 69 69 69 70 70 70 71 70 71 71 71 70 70 70 69 68 68 68 67 68 67 67 67 67 66 66 65 65 65 65 66 66 67 68 70 72 72 72 71 70 69 70 69 69 68 68 68 68 69 69 69 70 70 71 71 71 72 72 73 74 74
70 69 68 67 67 67 67 67 66 66 65 64 64 64 64 63 62 62 61 61 61 62 62 63 65 66 67 68 68 69 69 69 70 70 70 71 71 70 70 70 70 69 69 69 68 68 68 68 68 67 67 67 66 66 66 66 66 67 67 69 70 71 72 72 72 71 70 70 70 70 70 69 69 69 69 69 69 70 70 70 70 69 69 69 69 70 70 71
70 69 68 67 67 67 67 67 66 66 65 64 63 63 63 63 62 61 60 60 60 60 61 62 63 65 66 67 68 69 69 69 69 69 70 70 70 70 70 70 70 70 70 69 69 69 69 69 68 68 67 67 67 66 66 66 67 67 68 70 71 72 72 72 72 72 71 70 70 70 70 69 69 69 69 69 70 70 70 70 69 69 69 68 67 67 67 69
69 68 67 66 66 66 66 66 66 66 65 63 61 61 62 62 61 60 59 58 57 58 59 60 61 63 64 66 67 68 69 69 69 70 70 71 70 70 70 70 70 71 70 70 69 69 69 69 69 68 68 67 67 66 66 66 67 68 69 71 71 72 72 72 72 72 71 70 70 70 70 70 70 70 69 70 70 70 69 69 69 69 69 68 66 66 66 67
68 68 67 66 65 65 65 65 66 65 63 60 59 59 59 60 60 59 57 56 56 55 56 57 58 60 62 64 66 67 68 68 69 70 70 70 71 70 70 70 71 71 71 70 70 70 70 70 69 69 68 67 67 67 67 67 67 68 70 71 71 71 72 72 72 72 71 70 70 70 70 70 70 70 70 71 70 69 69 69 68 68 68 67 66 65 65 65
67 67 66 64 64 63 63 64 64 62 59 57 56 56 57 58 59 58 56 55 55 55 54 55 56 57 60 62 64 65 66 67 68 69 69 70 70 70 70 70 71 71 71 71 71 71 71 70 70 69 68 68 68 67 67 67 68 69 71 71 70 71 72 72 72 72 71 71 71 70 71 71 71 70 70 71 70 69 69 68 68 68 67 67 66 65 64 64
66 66 64 63 62 61 61 61 60 59 57 55 54 54 55 57 58 57 56 55 55 55 55 55 55 56 57 60 62 64 65 65 66 67 68 69 70 70 70 70 71 71 71 71 71 72 72 71 71 70 69 68 68 68 68 68 68 70 72 71 70 70 72 72 72 73 72 72 72 71 71 72 70 69 70 70 70 69 68 68 67 67 66 65 65 64 63 63
65 64 62 61 61 59 58 58 58 56 54 53 52 52 53 56 57 57 56 55 54 55 55 55 55 55 56 57 59 61 62 63 65 65 66 67 68 69 70 70 70 71 71 71 72 72 72 72 71 71 70 70 69 69 69 69 70 71 72 71 70 71 73 73 73 74 74 73 72 71 72 71 69 68 69 69 68 67 67 67 66 65 64 63 62 62 61 61
65 63 61 60 59 57 56 55 55 53 51 50 50 51 52 54 56 56 55 55 55 55 55 55 55 56 56 56 57 58 59 60 62 63 64 65 66 67 68 69 69 70 70 70 71 72 72 72 72 72 71 71 71 70 70 70 71 72 72 72 72 72 73 73 73 75 74 74 72 71 71 69 67 66 68 68 66 66 65 64 63 62 61 60 59 59 59 61
64 62 60 59 58 57 55 54 53 51 48 47 47 48 50 52 55 56 55 55 55 56 56 56 56 56 56 56 57 56 56 57 58 60 61 63 64 65 66 67 67 68 68 69 70 71 72 72 73 73 72 72 72 72 71 71 72 73 73 73 74 73 73 74 74 75 74 73 72 70 70 67 64 64 66 65 64 64 63 62 61 60 59 58 57 57 59 62
63 61 60 58 57 56 55 53 52 48 46 45 44 45 47 50 53 54 55 55 55 57 58 58 58 58 57 57 57 56 56 57 57 58 59 60 62 63 64 65 65 66 67 68 70 71 72 72 73 73 73 73 73 73 72 72 73 73 74 75 74 74 74 74 75 75 73 73 73 70 68 65 62 62 64 63 61 61 61 60 59 58 57 56 56 58 61 63
63 61 59 58 57 56 54 52 50 46 44 42 41 42 44 47 50 52 54 54 54 55 56 58 59 59 59 58 57 57 58 58 58 59 59 59 60 61 62 63 64 66 67 68 69 70 71 72 73 73 74 74 74 73 73 73 74 74 74 75 75 74 74 74 74 74 73 74 73 70 66 63 61 61 62 60 59 58 57 57 56 56 56 56 57 59 62 61
63 61 60 58 56 54 53 52 49 45 43 41 39 40 41 44 47 49 51 53 53 54 55 56 57 58 59 59 59 59 60 60 60 60 60 60 61 61 62 63 63 64 65 66 67 69 70 71 72 73 73 73 73 73 73 74 74 74 74 75 75 74 74 73 72 73 73 72 71 67 62 61 60 59 58 57 56 55 55 54 54 54 55 56 58 60 61 59
64 62 60 58 56 54 53 52 49 45 42 40 39 39 40 41 43 46 48 50 52 53 53 54 56 57 58 59 58 60 61 60 61 61 61 62 62 63 63 63 64 64 65 65 67 68 69 70 71 71 72 72 73 73 73 74 74 74 74 74 74 73 73 72 71 70 69 67 65 61 57 58 59 57 55 54 54 53 52 52 52 52 54 56 59 60 59 57
65 63 61 58 57 55 54 53 50 46 43 40 39 39 40 41 42 44 45 47 49 51 52 53 54 55 57 58 57 59 61 61 62 61 62 63 63 63 63 63 64 65 65 66 67 68 68 70 70 71 72 73 73 73 73 74 74 73 73 73 73 72 72 70 67 65 63 61 59 56 53 54 57 55 52 52 51 51 51 50 50 51 53 56 58 59 58 56
66 64 62 59 58 57 55 53 50 47 43 40 39 40 41 42 43 44 44 46 47 49 50 51 52 53 55 56 56 57 60 61 62 62 63 63 63 63 63 64 65 66 66 66 67 68 69 70 71 72 72 73 73 73 74 74 73 73 73 73 71 70 67 65 62 59 58 58 56 53 50 51 55 53 50 50 49 49 50 49 49 50 52 55 57 57 57 56
67 65 63 60 59 59 56 53 51 48 45 41 39 40 43 44 44 44 45 46 47 47 48 49 50 51 52 53 54 55 56 58 60 61 61 62 63 63 63 64 65 66 66 67 68 69 69 70 71 72 73 73 74 74 74 73 73 73 71 69 67 64 62 60 58 56 56 56 54 52 49 50 53 52 50 48 47 48 49 49 50 51 52 54 55 56 55 55
68 66 64 62 60 60 58 55 52 49 46 43 41 42 44 45 45 45 45 45 46 47 48 49 49 49 50 51 52 52 53 54 56 57 59 60 61 61 62 63 64 65 66 67 68 69 69 70 70 71 72 73 73 73 73 72 71 70 67 64 62 60 59 58 57 55 55 55 54 52 50 49 51 51 50 48 46 46 49 50 50 51 52 53 54 54 54 55
69 67 65 63 61 61 60 56 52 50 48 44 42 43 45 45 45 44 44 43 44 44 45 48 49 50 51 52 52 51 52 53 54 55 56 58 58 59 60 61 63 64 65 66 67 68 68 68 68 68 70 71 71 71 70 70 68 66 63 61 60 59 58 58 57 56 54 54 54 52 50 48 49 51 50 49 46 46 49 50 50 51 51 52 53 53 54 55
69 67 65 63 62 62 61 58 54 51 50 46 45 45 45 45 44 43 43 43 42 42 43 45 47 49 52 52 52 51 52 53 54 55 56 58 58 58 60 61 62 63 64 65 65 65 65 65 65 67 69 69 69 69 68 68 66 64 62 60 59 58 59 58 56 56 54 52 53 52 50 48 49 50 50 48 46 46 48 50 50 50 50 51 52 53 54 55
69 67 65 64 64 63 62 60 56 53 51 48 47 47 46 45 44 43 43 44 44 43 43 43 44 48 50 49 48 49 50 52 54 56 57 58 58 58 60 60 61 62 63 63 62 63 63 63 65 67 67 67 67 67 67 66 65 63 61 59 58 58 60 58 56 55 53 50 51 51 49 49 50 50 49 47 46 47 48 50 50 49 49 50 52 52 53 54
70 68 65 64 64 63 63 62 58 55 52 50 50 50 48 46 44 43 45 46 46 44 43 42 43 47 49 46 46 46 47 50 53 54 55 56 56 58 59 59 60 61 61 61 61 63 63 65 67 66 64 64 64 64 64 64 62 61 59 59 60 60 59 58 55 53 51 48 49 50 49 50 50 49 48 47 46 47 49 50 49 49 49 49 50 51 51 52
70 69 66 64 64 64 64 63 60 56 54 52 52 51 50 47 45 44 46 49 48 45 44 43 44 47 46 44 45 45 46 49 52 53 53 54 55 56 57 58 59 60 61 62 63 64 65 67 68 65 63 63 62 62 62 61 60 60 59 60 61 60 57 56 55 51 48 46 46 48 48 49 50 48 47 46 45 48 50 50 49 49 49 49 50 49 48 48
70 70 68 65 64 64 64 63 61 58 56 55 54 53 52 49 47 47 48 51 50 46 45 46 46 47 46 45 46 45 46 49 52 53 53 54 56 56 58 59 60 62 63 64 65 65 67 68 68 66 64 63 62 61 60 59 59 59 59 60 61 59 55 55 54 49 46 45 45 46 46 47 49 47 46 45 45 47 50 50 50 49 49 50 48 46 45 45
69 71 70 68 66 64 64 64 63 60 58 57 56 55 54 52 50 51 51 53 53 48 46 47 48 49 49 48 49 49 49 51 55 57 55 56 59 59 60 61 61 63 65 65 65 64 66 67 67 65 63 62 60 59 59 58 58 58 59 59 58 57 54 53 51 48 45 45 43 43 44 46 46 46 45 45 45 46 49 50 49 48 49 48 46 45 44 45
69 70 71 70 68 66 65 66 64 62 60 59 58 56 55 54 53 54 54 55 55 51 49 49 49 51 52 52 52 52 53 54 58 59 57 59 61 60 61 60 61 63 64 64 62 61 63 64 63 61 59 57 56 56 57 56 55 56 57 56 55 55 53 51 49 48 45 43 42 41 43 45 44 44 44 44 44 45 47 48 47 48 48 47 45 44 44 46
67 69 71 70 69 68 67 67 66 64 62 61 60 58 57 56 56 56 56 57 57 54 52 51 52 53 54 55 55 55 55 56 59 59 58 60 61 60 60 60 61 62 62 61 58 58 60 59 56 54 53 52 52 53 54 52 51 53 54 52 51 51 50 48 47 46 44 41 41 41 41 43 43 43 42 43 43 44 45 46 46 47 47 46 44 43 43 46
68 68 69 69 69 68 69 69 67 65 64 63 61 60 59 59 58 58 58 58 58 57 56 54 54 55 56 57 57 56 56 56 57 58 58 59 60 60 60 61 61 61 59 56 55 56 57 53 50 49 48 48 50 50 49 46 48 51 50 48 48 47 47 46 44 43 41 40 40 40 39 40 42 42 41 41 42 41 42 44 44 44 44 43 42 42 43 45
69 68 67 68 69 68 68 69 68 67 66 65 63 62 62 61 60 60 59 59 59 59 58 57 56 57 57 57 57 56 56 56 56 58 58 59 60 60 60 61 60 57 54 52 51 52 51 48 46 45 45 47 49 47 45 45 47 48 46 45 45 44 44 43 40 40 38 37 40 40 37 36 40 42 40 39 41 40 40 41 42 42 42 41 41 41 43 44
69 68 67 68 69 68 68 68 68 67 67 66 65 64 63 63 62 61 62 62 61 61 60 59 59 59 58 57 57 56 56 56 58 59 59 59 60 60 59 59 57 53 49 47 48 49 47 46 45 44 45 46 47 44 43 45 46 45 43 43 42 41 41 39 37 37 35 36 39 38 34 34 38 42 40 38 39 39 38 39 39 39 40 39 39 39 40 41
65 68 69 69 69 68 67 67 67 67 67 67 66 65 65 64 64 64 64 64 63 62 61 61 61 61 60 58 57 57 57 58 60 60 59 58 58 58 57 56 54 50 46 45 47 48 45 44 44 44 44 44 43 42 42 43 43 43 41 40 40 38 37 35 34 34 33 35 39 36 32 33 38 42 40 36 37 37 37 37 37 37 37 36 36 35 36 36
61 65 69 70 70 68 67 66 66 66 66 66 66 66 66 66 66 66 66 65 64 63 63 63 63 63 61 60 58 58 59 60 61 60 58 56 56 56 55 53 50 46 43 44 47 46 43 42 42 42 41 40 41 40 41 42 42 41 39 37 36 34 33 32 32 32 32 36 38 34 31 33 38 42 38 34 35 36 36 36 36 35 35 34 34 34 34 34
58 61 64 68 70 70 68 67 66 65 65 65 64 65 65 66 67 67 66 65 64 64 64 65 65 64 62 61 60 60 61 61 60 58 56 55 54 54 52 49 46 43 41 43 45 42 38 39 39 39 38 38 39 39 41 42 40 38 35 33 32 31 31 31 31 31 33 35 35 32 30 32 37 41 37 34 34 35 36 36 35 35 35 34 35 37 37 37
55 57 60 63 66 68 69 67 65 64 63 63 62 62 63 64 65 65 64 64 64 65 65 65 65 64 63 62 62 62 61 59 57 55 55 54 53 51 49 46 44 42 42 43 42 39 38 39 39 39 39 38 38 39 41 40 37 35 33 31 32 32 32 32 31 31 32 32 32 30 28 31 37 40 36 33 34 35 35 36 36 36 36 36 37 38 39 41
52 54 56 58 60 63 65 66 65 64 63 62 62 61 62 62 63 63 64 64 65 66 66 66 65 64 63 63 63 61 57 55 54 54 54 53 51 49 46 45 43 42 42 42 42 40 40 41 41 40 39 38 38 40 39 37 36 35 32 31 32 32 31 31 30 31 31 30 30 28 28 32 37 38 35 33 33 35 36 36 36 37 36 37 38 39 41 42
48 50 53 55 56 57 59 62 63 63 63 63 63 63 63 63 63 64 65 66 66 66 66 65 64 64 63 62 61 57 54 53 54 54 54 51 49 46 44 43 42 41 41 41 42 41 40 40 41 41 40 39 39 38 37 35 35 33 31 31 31 30 29 30 30 30 30 29 29 28 29 34 36 35 33 33 33 35 36 36 37 37 36 38 39 40 40 40
43 46 49 52 53 54 55 57 59 61 62 63 63 63 63 63 63 64 65 65 65 65 65 64 64 64 62 59 57 55 54 54 53 53 52 49 46 44 42 42 41 41 41 42 41 40 40 40 40 40 41 39 38 37 36 35 34 32 31 30 29 28 29 30 29 29 29 29 29 29 31 34 35 34 33 34 34 35 37 37 37 36 37 38 39 39 39 38
41 42 45 47 50 52 54 55 57 59 60 61 62 62 62 62 62 62 63 64 64 64 64 64 63 61 58 56 55 55 54 54 52 51 48 45 43 42 42 42 41 41 41 41 41 40 40 40 39 40 40 39 38 37 35 34 34 32 31 29 28 29 29 29 29 28 29 29 29 30 32 34 35 34 34 34 35 36 37 37 36 36 37 38 38 38 38 38
42 43 45 47 49 52 54 55 57 58 59 59 60 61 61 61 61 62 62 63 64 64 64 62 60 58 56 54 54 55 55 53 50 48 45 42 42 42 42 41 40 40 40 40 39 39 40 40 38 39 40 39 38 37 36 35 33 32 30 29 29 30 30 29 29 29 29 29 30 31 32 33 35 35 34 35 35 35 36 36 36 37 38 38 37 37 37 38
42 43 45 47 48 51 53 54 56 57 58 59 60 60 61 61 61 61 62 62 62 62 60 58 57 56 55 55 54 54 54 52 48 45 43 41 40 41 41 39 38 38 38 38 37 38 40 39 38 39 39 39 38 37 36 34 33 31 30 29 30 30 30 29 29 29 29 29 30 31 33 34 35 35 34 34 34 34 34 34 35 36 37 36 35 35 37 38
39 40 41 43 44 46 47 49 51 53 55 56 57 58 59 59 59 58 58 59 59 58 57 57 57 56 56 56 54 52 52 50 46 43 41 40 39 39 40 38 36 36 36 36 36 37 39 40 39 39 38 38 37 37 36 34 32 30 30 30 30 30 29 29 29 29 29 30 30 31 33 35 35 34 34 33 33 32 32 33 35 36 35 34 35 37 39 36
38 39 40 41 42 43 44 45 46 48 50 52 53 54 55 55 55 54 55 56 57 57 57 57 57 57 56 55 52 50 50 48 43 40 39 39 38 38 39 37 35 34 33 33 35 36 38 40 40 39 37 37 37 36 35 34 31 30 30 30 29 29 29 29 29 29 29 29 30 31 33 35 36 36 35 33 32 31 33 35 36 36 35 35 37 40 38 30
39 40 41 41 42 42 42 44 45 47 48 50 51 52 53 53 53 53 54 56 57 57 58 57 57 56 54 52 50 47 46 44 41 39 38 38 38 38 38 36 34 32 31 32 34 35 37 39 39 38 37 37 36 35 34 33 31 30 30 30 30 29 29 29 29 29 29 29 30 31 32 35 36 36 35 33 31 32 35 38 38 38 37 37 38 39 35 26
38 39 40 41 41 41 42 44 45 46 48 50 51 52 53 54 54 54 54 55 56 57 57 56 55 54 52 49 46 43 41 41 40 38 37 37 37 37 36 35 34 32 30 30 32 34 36 38 39 39 38 37 36 34 34 33 32 31 31 31 31 31 30 29 28 28 29 30 30 31 32 35 36 36 35 34 33 35 38 40 41 40 40 40 40 41 37 30
36 37 38 38 39 40 42 43 44 45 46 48 49 50 51 51 51 51 51 52 54 55 56 54 51 50 48 44 41 39 39 40 40 38 37 37 37 36 36 36 34 32 31 30 31 34 37 38 40 40 38 37 36 35 34 34 34 33 33 33 32 32 31 30 29 28 29 30 31 31 33 35 36 36 35 34 35 38 41 42 43 43 43 44 45 45 42 35
33 34 35 35 36 37 39 40 41 42 43 44 45 46 47 48 48 48 47 48 49 50 51 49 45 43 42 40 38 38 38 39 39 39 38 37 37 37 37 36 35 34 33 31 32 35 38 39 40 40 39 38 37 36 36 36 35 34 34 34 34 33 32 31 29 29 30 31 31 32 33 35 35 36 37 36 38 41 42 44 46 46 47 49 50 49 45 39
31 32 33 33 34 35 37 38 39 40 40 41 42 43 43 44 44 43 42 42 43 44 44 43 41 41 41 40 39 39 38 39 40 39 38 38 37 37 38 38 38 37 35 33 35 38 40 40 41 41 40 38 37 37 37 37 36 35 35 35 34 33 33 32 30 30 30 30 31 32 34 35 36 38 38 39 41 42 44 47 49 50 51 52 52 51 47 43
28 29 30 31 33 34 34 35 36 36 36 37 38 38 38 39 40 40 39 39 40 41 42 43 42 42 42 42 41 40 39 40 40 39 39 40 40 41 43 43 41 40 38 36 38 40 42 42 42 42 41 39 38 38 39 38 37 36 36 36 35 34 34 33 32 31 30 31 31 32 34 35 37 38 39 40 43 44 46 50 52 54 54 54 54 52 49 45
24 25 26 27 28 29 29 30 31 31 32 33 34 35 36 37 39 39 39 39 40 41 42 44 44 44 44 44 43 42 41 41 41 41 41 42 43 44 44 43 41 42 42 40 40 42 43 43 43 43 42 41 40 40 40 39 38 37 37 37 36 35 35 34 33 31 31 32 32 32 34 35 37 39 40 42 44 46 48 52 55 57 57 55 54 53 51 48
20 21 22 22 23 24 25 26 28 29 31 32 34 36 37 38 39 39 39 39 40 40 41 43 45 45 46 45 44 44 44 43 43 43 43 44 45 45 45 44 43 43 43 42 42 43 43 44 45 45 44 43 42 42 41 40 39 38 38 38 38 37 36 35 34 32 32 33 33 33 35 37 38 39 40 42 45 47 50 53 58 60 59 56 54 53 52 50
17 18 18 19 21 22 24 26 28 30 32 33 34 35 36 37 38 37 37 37 37 37 38 39 42 44 45 46 45 44 45 44 44 44 45 46 48 47 45 44 43 42 43 44 44 43 42 43 45 46 45 44 43 43 42 41 40 39 39 40 39 38 37 36 35 34 33 34 34 35 36 38 39 39 41 43 45 48 50 54 59 62 61 58 55 54 52 50
16 17 18 19 21 23 24 26 28 29 31 32 32 32 33 33 33 33 33 33 33 33 34 35 37 38 41 44 45 44 45 45 46 47 48 48 49 49 47 46 47 49 50 49 47 45 43 43 44 46 46 45 45 44 43 43 42 41 40 40 41 40 39 38 36 35 35 35 35 35 36 37 39 40 41 43 46 49 51 56 61 64 63 60 57 55 53 51
Wind_Direction
264 265 266 267 267 268 268 268 269 269 269 269 268 267 265 262 260 258 256 254 252 250 247 246 245 245 245 245 245 246 247 247 248 249 250 250 251 251 252 253 253 254 255 255 256 256 256 256 257 257 258 258 258 259 259 259 260 260 261 261 261 262 262 263 263 263 263 263 263 262 262 261 261 261 261 261 261 261 260 260 260 261 261 261 261 261 261 261
264 265 266 266 267 267 268 268 269 269 270 270 269 267 264 261 259 257 255 253 251 249 247 246 245 244 244 245 245 245 246 247 248 249 249 250 250 251 251 252 253 253 254 255 256 256 257 257 257 258 258 259 259 259 259 260 260 261 262 262 262 263 263 264 264 264 264 264 264 264 263 262 262 262 262 263 262 262 262 261 261 261 261 261 261 261 261 260
264 265 265 266 266 267 267 268 269 270 271 271 268 265 262 260 258 256 254 252 250 248 247 246 245 245 245 245 245 245 245 246 247 248 249 249 250 250 251 251 252 252 253 254 255 256 257 257 258 258 259 259 259 260 260 261 261 262 262 263 263 264 264 265 265 265 265 265 265 265 264 264 263 263 263 263 263 263 263 263 262 262 261 261 260 261 260 259
263 264 265 266 266 266 267 268 270 271 272 271 267 262 259 257 256 254 252 250 249 248 247 246 245 245 245 245 245 245 245 246 246 247 248 249 249 249 250 251 251 251 252 253 254 256 257 258 258 259 259 259 260 260 261 261 262 262 263 263 264 265 266 266 266 266 266 266 266 266 266 265 264 264 264 263 263 263 263 263 263 262 261 261 260 259 259 259
262 264 265 265 265 266 267 269 271 273 273 270 265 260 257 255 253 251 250 248 248 247 247 247 246 246 246 246 246 246 246 246 246 247 247 248 249 249 250 250 251 251 252 252 253 255 256 257 258 259 259 260 260 261 261 262 262 263 263 263 264 265 266 266 267 267 267 267 267 267 267 266 265 265 264 264 263 263 263 262 262 261 261 260 259 258 258 258
261 263 263 263 264 265 267 270 273 274 273 268 263 259 255 253 251 249 247 246 246 247 247 247 247 247 247 247 247 247 247 247 247 247 248 248 249 249 250 250 250 251 251 252 253 254 256 257 258 259 260 261 261 261 261 262 262 263 263 264 265 266 267 267 268 268 268 268 268 268 267 267 266 265 265 264 264 263 263 262 261 260 259 259 258 258 257 257
260 261 261 262 263 265 267 270 273 273 271 267 262 258 254 251 248 247 246 245 246 247 247 248 248 248 248 248 248 248 248 248 248 249 249 249 250 250 250 250 251 251 252 252 253 254 255 257 258 259 260 261 262 262 262 262 262 263 264 265 266 267 267 268 268 269 269 269 269 269 268 267 267 267 266 265 264 263 262 261 259 258 258 257 257 257 256 255
258 259 259 260 262 264 266 269 271 271 269 265 261 257 253 250 247 245 245 245 245 246 247 248 249 249 249 249 249 249 249 249 250 250 250 250 251 251 251 251 251 252 252 253 253 254 255 257 258 259 260 261 261 261 262 262 263 263 264 265 266 267 268 269 269 270 270 270 270 269 269 268 268 267 266 265 264 262 261 259 257 256 256 256 256 255 254 254
256 256 257 259 262 263 264 266 268 268 266 262 259 256 252 249 246 245 245 245 245 246 247 248 249 250 251 251 251 251 251 251 251 251 251 251 252 252 252 252 252 253 253 254 254 255 256 257 258 259 260 260 261 261 262 263 263 264 265 266 267 267 269 270 270 271 271 271 270 270 269 268 268 267 266 265 263 261 259 257 256 254 254 253 253 253 252 251
253 254 256 258 260 261 262 264 265 265 264 261 257 254 252 248 246 245 246 246 246 246 247 248 249 250 251 252 252 252 252 252 252 252 252 252 252 253 253 254 254 254 255 255 255 255 256 257 258 258 259 260 261 262 262 263 263 264 265 266 267 268 269 270 271 272 272 272 271 270 269 268 268 267 265 263 262 260 258 256 254 252 252 251 251 250 250 250
251 253 254 256 258 260 261 262 262 263 262 260 256 253 251 249 247 246 246 247 247 247 248 249 249 250 251 252 253 253 253 252 252 252 253 253 253 254 254 254 255 255 255 255 255 256 256 257 258 258 260 261 261 262 263 263 264 264 266 267 267 268 269 271 271 272 272 272 271 270 269 268 267 265 263 262 260 259 257 255 252 251 249 248 248 248 249 250
250 252 253 255 257 258 259 259 260 261 261 259 256 253 251 250 248 247 247 247 248 248 248 249 250 251 251 252 252 253 252 252 252 252 252 252 253 254 254 254 254 254 255 255 256 256 257 258 258 259 260 261 261 262 263 263 263 264 265 267 268 269 270 270 271 271 271 271 270 269 269 268 265 262 261 260 259 258 256 254 252 250 248 247 246 247 249 250
250 251 252 254 255 256 256 257 258 259 260 259 256 254 252 251 249 248 247 247 247 248 248 249 249 250 250 251 251 252 252 252 252 252 252 252 252 253 253 253 254 255 256 256 257 257 258 258 259 260 260 261 262 262 262 263 263 264 265 266 268 269 269 269 270 270 270 269 268 268 268 266 263 260 259 258 258 257 255 253 252 250 248 247 247 247 249 250
250 251 251 252 253 253 253 255 256 257 258 257 256 255 253 252 251 249 248 248 247 247 248 248 248 249 249 249 250 251 252 252 252 252 252 252 253 253 254 255 256 256 256 257 257 258 258 259 259 260 260 261 262 262 262 263 264 264 265 267 268 268 269 269 269 269 269 267 267 267 266 264 261 259 257 257 256 256 255 253 251 250 249 248 248 248 249 249
249 250 250 250 251 250 250 253 254 255 256 256 256 254 253 253 252 251 250 248 248 247 247 248 248 248 249 249 249 250 251 252 252 253 253 254 254 255 256 256 257 257 257 257 258 259 259 260 260 260 261 261 262 262 263 264 264 265 266 267 267 268 269 270 269 269 268 266 265 264 263 262 261 258 257 256 255 255 255 253 251 250 249 249 249 249 249 249
249 249 249 249 249 249 249 251 253 253 254 255 256 255 253 252 251 251 250 250 249 248 248 248 249 249 250 250 249 250 251 252 253 253 254 255 255 256 256 257 257 257 258 258 258 259 259 260 261 261 262 262 263 263 264 265 265 266 266 267 268 269 270 269 268 267 266 265 264 262 260 260 260 258 256 255 254 253 253 251 250 248 248 248 249 249 248 248
248 248 248 248 247 248 248 250 251 252 252 254 255 255 254 252 251 251 251 251 251 250 250 250 250 250 251 251 251 250 252 253 254 254 254 255 255 256 256 256 257 257 258 258 259 259 260 261 262 262 263 264 264 264 265 266 266 266 266 267 268 269 268 267 266 265 264 264 262 261 258 257 258 258 255 253 252 251 251 249 247 246 245 246 247 248 248 247
247 247 247 246 246 247 248 248 249 250 251 252 254 255 254 252 251 252 252 253 253 253 252 252 252 252 253 253 252 252 252 253 255 256 255 255 256 256 257 257 258 258 259 259 259 260 260 261 263 264 265 265 265 266 266 266 266 266 267 268 268 268 267 267 265 263 262 261 260 259 257 255 256 257 255 252 250 249 249 248 247 246 245 245 246 246 246 246
245 246 246 245 245 246 247 247 247 248 249 250 252 253 254 253 252 252 253 254 254 254 255 255 254 254 254 253 253 253 253 254 255 257 257 258 258 258 259 259 260 260 260 261 261 261 262 263 264 265 265 265 266 266 266 266 267 267 268 268 268 268 267 266 264 261 259 259 259 257 256 255 255 255 254 252 250 247 247 247 246 245 245 245 246 246 246 245
243 244 245 245 244 245 246 247 247 247 248 249 251 252 253 253 252 252 253 254 255 256 257 256 254 254 254 254 254 255 256 256 257 258 259 260 260 261 261 262 262 263 263 263 264 265 265 266 266 265 265 265 266 266 266 267 267 268 268 268 268 268 267 264 262 260 257 257 257 257 256 255 254 253 252 251 250 248 247 247 246 245 244 244 245 245 245 245
242 242 243 243 243 244 246 246 246 246 246 247 249 251 252 253 252 252 253 254 255 257 257 257 255 254 254 255 257 257 258 258 259 259 259 260 261 262 263 263 264 265 266 267 268 269 269 268 267 266 265 265 266 266 266 267 267 267 267 268 267 266 264 262 260 259 257 256 257 256 255 255 253 252 252 251 250 249 247 246 246 245 244 243 244 244 245 245
241 241 241 242 242 244 245 246 246 245 246 246 248 249 251 252 252 251 252 253 253 254 256 257 256 255 256 257 258 259 259 259 259 259 260 262 262 263 264 265 266 267 268 270 271 271 271 270 269 267 267 267 266 266 266 266 266 266 266 266 265 263 262 261 259 258 256 255 256 256 255 254 254 252 251 250 249 249 248 247 246 246 245 244 244 244 245 246
241 241 240 240 241 242 244 246 246 245 245 245 247 248 249 250 251 250 251 251 251 251 254 256 256 257 258 259 258 258 259 260 260 260 261 262 263 263 265 266 267 269 270 271 270 271 271 270 270 270 269 268 267 266 265 265 264 264 263 263 263 262 261 261 260 257 257 257 257 256 254 254 254 252 251 249 248 248 249 248 247 246 245 244 243 244 245 246
241 241 240 239 239 241 243 244 245 245 245 245 246 247 249 249 250 250 250 251 251 249 251 254 256 258 259 259 259 258 258 260 261 261 261 263 264 265 266 267 268 269 270 270 270 270 270 270 270 270 269 268 266 265 263 263 261 261 261 261 261 262 261 261 260 258 257 257 257 255 254 253 254 253 251 249 247 248 248 247 246 245 244 243 243 243 243 244
240 240 240 240 239 239 241 243 244 244 244 245 246 247 249 249 249 250 251 252 253 251 250 253 256 259 259 259 259 260 259 261 263 263 263 264 265 266 267 268 269 270 270 270 271 271 270 269 269 268 267 266 265 264 262 261 260 259 259 259 261 262 262 261 261 259 256 257 257 256 254 253 253 252 250 247 246 246 247 246 246 245 244 244 243 242 241 240
239 239 240 240 239 239 239 241 242 243 244 245 246 247 248 249 250 251 252 253 255 254 253 253 255 258 261 261 261 262 262 263 264 266 267 267 267 268 269 270 271 271 271 271 271 270 269 268 267 266 266 265 263 262 260 259 258 258 258 259 260 262 262 261 260 259 257 256 256 254 252 252 251 250 249 247 245 245 246 245 244 244 243 243 241 240 239 239
238 238 239 240 240 240 240 240 240 241 243 244 245 246 248 249 251 251 252 254 255 255 254 255 256 259 262 264 264 264 264 264 266 267 268 269 269 270 271 272 271 271 271 272 272 270 267 266 265 265 264 263 261 259 258 258 258 257 257 258 259 260 260 259 258 258 256 254 254 253 250 250 251 248 247 246 243 243 244 244 243 242 242 241 239 238 237 238
238 237 238 239 240 240 241 241 240 241 242 243 245 246 247 249 250 251 253 254 255 255 255 256 258 261 262 264 265 265 265 264 265 266 268 269 271 272 272 272 271 272 273 273 271 268 266 265 263 262 261 259 258 256 256 256 255 254 254 255 256 257 258 257 256 255 254 253 253 251 248 249 250 248 244 243 242 241 241 242 242 241 240 239 237 235 234 236
238 237 237 238 239 240 241 242 242 241 242 242 244 245 247 248 250 251 253 253 254 255 256 258 260 262 263 264 264 264 264 264 264 266 268 271 272 272 272 272 272 274 274 271 268 265 264 262 260 258 257 256 254 254 253 252 251 251 252 253 254 255 256 255 254 253 253 252 251 249 246 246 248 247 243 241 241 239 238 239 239 239 238 236 234 232 232 234
238 237 237 237 238 239 240 242 243 243 243 243 243 245 246 248 250 252 253 254 254 255 257 259 262 263 264 263 263 263 263 264 266 269 271 272 272 272 271 272 273 273 269 266 264 262 261 259 258 256 254 253 253 252 251 250 250 251 251 252 253 254 254 254 253 252 250 250 250 247 244 243 245 245 241 237 238 236 234 235 235 236 236 235 234 233 234 236
239 237 237 237 238 238 239 241 243 244 244 244 244 245 246 248 250 252 253 254 254 256 258 260 262 263 263 263 263 264 264 267 269 271 272 272 271 271 271 272 272 269 264 261 260 258 258 257 256 254 253 253 253 251 250 250 250 249 249 251 252 253 253 253 252 250 248 248 248 246 242 240 240 242 238 234 235 234 232 232 232 233 234 234 234 234 235 238
240 238 237 237 238 238 239 240 242 244 245 246 245 245 246 248 250 252 253 254 255 257 258 260 262 263 263 263 264 265 267 270 272 272 271 270 270 271 271 270 268 264 261 261 260 259 259 257 255 255 254 253 251 250 249 248 247 247 248 250 252 253 254 253 250 248 245 246 247 245 240 236 238 241 238 232 232 232 231 229 229 230 230 230 229 229 229 230
240 239 238 238 238 238 238 239 242 244 245 246 247 247 247 248 250 252 254 255 256 257 258 260 261 262 263 264 265 268 270 272 272 270 269 268 270 271 270 267 262 259 258 258 259 259 257 254 253 253 251 249 248 246 245 245 245 246 247 249 251 252 251 249 245 243 243 244 246 244 238 235 237 240 237 231 229 230 230 228 227 227 226 225 224 223 221 221
240 239 238 239 240 240 239 239 241 243 245 246 247 247 247 248 250 252 254 256 256 257 259 260 262 262 263 264 267 270 271 270 268 267 267 269 270 270 267 261 256 255 255 255 256 254 250 248 247 247 246 245 244 242 242 243 244 244 243 244 245 245 244 243 241 241 241 242 243 240 234 233 236 238 235 229 227 228 228 227 225 224 223 223 222 221 220 218
240 239 238 239 241 241 240 240 241 243 244 246 246 247 248 249 251 253 254 256 257 258 260 261 262 262 264 266 269 269 267 265 265 266 267 269 269 267 262 256 253 253 254 253 252 249 246 245 245 244 244 244 242 241 241 242 241 240 239 239 240 240 240 240 239 239 239 238 239 235 229 230 234 236 234 229 225 226 227 226 224 223 222 221 221 220 219 219
240 239 238 239 241 242 242 241 242 243 245 246 248 248 249 251 252 254 255 256 257 259 260 261 261 263 266 268 267 265 263 262 263 266 268 269 268 264 258 253 252 253 252 251 249 247 246 246 246 245 244 243 242 241 240 239 239 238 237 237 238 238 238 238 237 237 236 234 233 229 226 229 232 233 232 228 224 224 225 225 223 222 220 220 220 219 219 218
239 239 239 239 241 242 242 242 243 243 245 246 248 249 251 251 252 254 255 256 257 258 259 261 263 265 266 265 263 261 261 262 264 266 267 267 264 259 253 250 251 251 250 248 245 244 245 245 245 246 244 240 239 239 237 236 236 236 234 234 235 235 234 235 235 235 234 232 229 225 224 227 230 229 228 226 222 221 222 222 222 219 218 218 218 217 215 214
237 236 237 238 239 240 241 242 242 243 245 246 248 249 251 251 252 253 255 256 258 259 261 262 264 264 262 261 260 261 262 263 264 265 265 263 259 252 249 248 249 249 248 245 242 241 241 242 242 243 241 237 236 236 234 233 233 232 231 231 231 231 231 232 232 231 231 230 228 225 223 226 227 226 225 223 221 220 220 220 219 216 216 216 216 214 212 210
236 235 235 236 237 239 240 242 243 244 245 246 247 249 250 251 253 254 256 257 259 261 262 262 262 260 260 259 261 262 263 264 264 264 261 257 251 248 247 248 249 250 248 244 241 239 239 239 238 238 237 234 233 233 232 231 231 231 230 229 229 229 228 229 229 228 227 227 226 225 223 225 226 223 222 221 219 218 219 217 215 214 214 214 213 212 209 206
238 238 238 239 240 241 243 244 245 246 247 248 249 250 251 252 253 255 257 258 260 260 260 260 259 259 260 260 261 262 263 263 262 260 255 247 244 246 248 249 250 251 247 242 240 239 239 238 236 234 233 232 231 232 231 230 229 229 228 227 227 228 228 228 228 227 226 225 225 225 223 223 224 222 221 220 218 217 216 213 211 211 212 211 209 207 204 202
239 239 239 240 241 242 243 245 246 247 248 249 250 251 252 253 254 255 256 257 257 258 258 258 259 259 260 260 260 261 263 262 259 253 246 240 239 244 247 248 249 249 246 241 239 238 237 235 233 230 230 230 230 230 231 230 228 227 227 225 225 227 229 229 228 227 225 224 224 225 224 223 221 219 218 218 216 214 211 208 207 207 208 205 201 199 199 199
238 239 239 240 240 241 243 244 245 246 247 248 249 250 251 252 252 253 253 254 255 256 258 259 259 260 260 260 260 260 261 259 252 243 237 235 237 240 245 247 249 249 246 240 237 235 233 232 231 228 227 228 228 229 230 229 226 226 225 224 223 226 228 229 228 226 225 225 224 225 225 223 220 218 215 213 211 208 204 202 202 202 201 198 197 195 192 191
239 240 241 242 243 243 244 245 246 247 248 248 249 250 250 251 252 252 253 255 256 257 258 258 258 259 259 259 259 258 255 251 243 234 230 232 235 238 242 245 247 249 247 241 236 233 229 229 230 228 226 227 227 227 228 227 224 224 224 222 221 224 226 226 227 226 225 225 225 225 225 223 220 218 214 210 205 202 201 199 198 196 194 193 194 190 182 182
241 241 242 244 245 245 245 246 247 248 249 250 250 251 252 253 253 254 254 256 257 258 258 258 258 259 259 258 255 250 244 240 236 230 228 230 234 237 240 244 246 247 246 240 234 230 227 226 228 228 225 225 225 225 227 227 224 222 222 221 220 222 224 223 223 224 225 225 224 224 224 222 220 218 214 208 201 199 199 197 194 192 191 189 186 180 175 180
242 243 244 245 246 247 248 249 250 251 252 252 253 253 254 255 256 255 255 255 256 257 258 258 257 257 255 252 247 240 234 232 232 229 228 228 231 234 237 240 243 244 243 238 231 227 226 225 227 228 225 223 223 223 224 225 224 222 221 220 220 221 223 221 219 220 223 223 223 223 222 221 218 216 213 206 199 199 198 195 192 190 189 187 181 179 180 186
243 244 245 246 247 248 249 250 252 253 254 255 256 257 258 258 258 257 256 255 255 255 255 254 252 250 248 244 239 234 230 230 230 229 228 227 228 231 234 236 239 241 242 237 228 224 224 225 227 228 226 222 221 222 223 224 223 222 221 220 220 221 222 221 217 218 221 222 223 223 221 219 216 213 211 205 199 199 197 193 191 189 187 185 182 184 188 193
243 245 245 246 248 249 251 253 255 256 257 258 259 260 260 260 259 257 254 253 252 251 251 250 247 244 243 241 238 233 229 229 229 228 228 227 227 228 232 233 233 235 238 236 229 224 223 224 226 228 226 223 221 222 223 223 222 221 220 220 220 221 222 221 218 218 220 221 222 223 221 219 215 212 210 205 200 198 196 194 192 189 187 186 186 189 194 198
243 245 246 247 249 252 254 256 258 259 260 261 261 260 259 259 258 257 255 253 251 250 250 250 247 244 241 239 238 234 230 227 227 227 226 227 226 226 228 229 228 230 232 233 231 227 224 223 225 228 227 223 221 222 223 224 222 221 220 220 219 220 221 221 219 218 219 221 222 223 222 219 216 212 209 205 201 199 197 195 193 190 189 189 190 193 198 202
242 244 246 248 251 253 255 257 258 260 260 261 261 261 261 261 261 260 258 256 254 252 250 250 249 246 243 239 236 234 231 227 225 224 224 225 227 227 229 230 229 228 228 229 231 230 226 223 223 225 225 223 221 221 223 224 222 221 221 220 220 220 221 221 219 218 219 221 221 221 221 220 217 213 210 206 203 200 197 195 194 192 191 192 194 197 201 205
239 242 244 247 250 253 255 258 260 262 263 264 265 266 267 266 266 264 263 261 258 254 251 248 247 246 244 241 237 233 231 228 225 223 223 224 227 228 229 231 230 229 229 229 229 231 229 225 223 223 222 221 220 221 222 223 223 222 222 221 220 220 221 221 220 218 220 222 222 221 220 219 217 214 210 208 205 202 200 197 196 194 194 196 199 201 203 206
236 241 245 249 253 256 259 262 264 266 267 268 268 268 268 268 268 267 266 263 260 256 252 248 245 243 241 241 238 233 229 227 224 223 222 222 225 226 226 229 232 233 233 232 231 231 230 227 226 225 223 222 221 222 222 223 223 222 222 222 221 220 220 221 221 220 220 222 223 222 220 219 218 214 211 209 207 205 202 200 198 197 197 199 202 203 204 206
237 243 249 253 257 261 263 266 267 269 271 272 272 271 270 270 269 268 267 264 262 258 254 250 245 241 238 237 236 232 228 225 222 221 221 221 224 224 222 222 225 227 227 228 229 230 229 228 227 227 225 224 222 222 222 222 223 223 223 223 222 221 220 221 222 222 221 222 223 223 223 221 220 217 212 209 208 206 204 202 200 199 199 202 204 205 205 207
Height
10635 10637 10638 10639 10640 10641 10642 10643 10645 10646 10647 10649 10649 10650 10651 10652 10653 10655 10656 10658 10660 10663 10665 10667 10670 10672 10675 10678 10681 10683 10686 10689 10691 10693 10696 10698 10700 10703 10705 10707 10709 10712 10714 10717 10718 10720 10722 10724 10725 10727 10729 10731 10733 10735 10736 10738 10739 10739 10740 10740 10739 10737 10735 10737 10740 10744 10748 10750 10751 10753 10756 10759 10760 10762 10763 10763 10764 10765 10765 10766 10767 10770 10771 10773 10775 10777 10780 10781
10628 10630 10631 10632 10633 10634 10635 10636 10637 10639 10640 10641 10642 10642 10643 10644 10646 10647 10649 10651 10653 10655 10658 10660 10663 10665 10668 10671 10673 10676 10679 10682 10684 10686 10689 10690 10692 10696 10698 10700 10702 10705 10707 10709 10711 10713 10714 10717 10719 10721 10722 10724 10726 10729 10730 10732 10732 10733 10733 10732 10731 10730 10729 10731 10734 10737 10741 10743 10744 10746 10749 10752 10753 10755 10756 10756 10756 10757 10757 10759 10761 10763 10764 10767 10769 10771 10773 10773
10621 10622 10624 10625 10626 10627 10628 10629 10630 10631 10632 10633 10634 10634 10635 10636 10638 10640 10642 10644 10646 10649 10651 10653 10656 10658 10661 10663 10666 10668 10671 10674 10677 10679 10681 10682 10685 10688 10691 10693 10695 10697 10700 10703 10704 10706 10707 10709 10712 10714 10715 10717 10720 10722 10724 10725 10726 10727 10726 10724 10723 10723 10723 10725 10727 10729 10733 10736 10736 10739 10742 10745 10746 10747 10749 10748 10749 10749 10750 10752 10754 10755 10757 10760 10762 10764 10765 10764
10614 10615 10617 10618 10619 10619 10620 10621 10622 10624 10624 10625 10626 10626 10627 10629 10630 10632 10635 10637 10640 10642 10644 10646 10649 10651 10654 10656 10658 10661 10663 10667 10669 10671 10673 10675 10678 10681 10684 10686 10688 10690 10693 10696 10697 10699 10700 10702 10704 10707 10709 10711 10713 10716 10718 10719 10720 10720 10717 10716 10716 10716 10716 10718 10719 10721 10726 10729 10729 10732 10735 10737 10738 10740 10741 10740 10741 10742 10744 10745 10746 10748 10749 10752 10755 10756 10757 10757
10607 10608 10610 10611 10612 10612 10613 10614 10615 10616 10616 10617 10618 10618 10620 10621 10623 10625 10628 10630 10633 10635 10637 10640 10642 10645 10647 10649 10651 10654 10656 10660 10662 10664 10666 10668 10671 10674 10676 10679 10681 10683 10686 10689 10690 10692 10693 10695 10697 10700 10702 10704 10707 10709 10712 10712 10713 10711 10708 10708 10710 10710 10709 10710 10712 10713 10719 10721 10722 10724 10727 10727 10729 10732 10733 10732 10733 10735 10737 10737 10738 10740 10741 10744 10747 10748 10750 10752
10600 10602 10603 10604 10605 10606 10606 10607 10608 10608 10608 10609 10610 10611 10613 10614 10616 10618 10621 10624 10626 10629 10631 10633 10636 10638 10640 10642 10644 10646 10649 10653 10655 10656 10660 10662 10664 10667 10669 10672 10674 10676 10679 10681 10683 10685 10687 10689 10691 10694 10696 10698 10700 10702 10704 10705 10705 10703 10700 10701 10703 10703 10702 10703 10705 10706 10711 10713 10713 10717 10718 10718 10721 10724 10725 10724 10726 10728 10729 10730 10731 10732 10733 10736 10739 10741 10744 10745
10593 10595 10596 10597 10598 10599 10600 10600 10601 10601 10601 10602 10603 10604 10606 10608 10610 10612 10615 10617 10620 10622 10625 10627 10630 10632 10634 10635 10637 10639 10642 10646 10647 10650 10653 10655 10657 10659 10662 10665 10667 10669 10672 10675 10677 10678 10680 10683 10685 10688 10690 10691 10693 10694 10697 10697 10697 10695 10692 10694 10697 10697 10694 10697 10699 10699 10702 10704 10705 10709 10709 10710 10714 10717 10717 10717 10719 10721 10721 10722 10723 10724 10726 10729 10732 10735 10737 10737
10586 10588 10589 10591 10592 10593 10594 10594 10594 10595 10595 10595 10596 10597 10599 10601 10604 10606 10609 10611 10614 10616 10619 10621 10623 10626 10627 10629 10631 10633 10637 10640 10640 10643 10646 10648 10650 10652 10655 10658 10660 10663 10666 10668 10670 10672 10674 10676 10678 10681 10682 10683 10684 10686 10689 10689 10690 10687 10686 10688 10690 10689 10687 10690 10692 10690 10693 10695 10699 10702 10701 10703 10708 10710 10709 10709 10711 10712 10713 10714 10716 10718 10720 10723 10725 10727 10728 10728
10579 10581 10583 10584 10585 10587 10588 10588 10589 10589 10589 10589 10590 10591 10593 10595 10598 10600 10603 10605 10608 10610 10612 10615 10617 10619 10622 10623 10625 10628 10631 10633 10634 10637 10639 10641 10643 10645 10648 10651 10653 10656 10659 10662 10664 10665 10667 10669 10671 10673 10674 10675 10676 10679 10681 10682 10682 10680 10680 10681 10681 10682 10681 10683 10684 10683 10685 10687 10691 10694 10693 10697 10702 10703 10700 10700 10703 10704 10705 10706 10709 10712 10715 10717 10719 10720 10720 10719
10572 10574 10576 10577 10579 10580 10582 10583 10583 10583 10583 10584 10584 10586 10588 10589 10592 10594 10597 10599 10602 10604 10606 10608 10611 10613 10616 10617 10619 10623 10626 10626 10628 10630 10632 10634 10636 10639 10641 10644 10647 10650 10653 10655 10656 10657 10659 10661 10663 10664 10666 10667 10669 10671 10674 10675 10675 10673 10673 10673 10673 10675 10676 10676 10676 10675 10678 10679 10682 10686 10686 10690 10696 10695 10691 10691 10695 10696 10697 10700 10703 10706 10709 10711 10712 10712 10710 10710
10565 10567 10569 10571 10573 10574 10576 10577 10577 10578 10578 10578 10579 10581 10582 10584 10586 10588 10591 10593 10596 10598 10600 10602 10604 10607 10609 10611 10614 10617 10619 10620 10622 10624 10626 10628 10630 10632 10635 10637 10640 10642 10644 10647 10648 10649 10651 10653 10655 10657 10658 10660 10661 10663 10666 10667 10667 10666 10665 10665 10666 10669 10669 10670 10668 10668 10671 10671 10673 10678 10679 10682 10688 10686 10682 10684 10687 10688 10691 10694 10697 10700 10702 10704 10705 10703 10701 10705
10558 10560 10562 10564 10566 10568 10570 10571 10572 10572 10573 10574 10574 10576 10577 10579 10580 10583 10585 10587 10590 10591 10594 10596 10598 10600 10602 10605 10608 10610 10611 10613 10615 10617 10620 10622 10623 10625 10628 10630 10632 10634 10636 10639 10641 10642 10644 10646 10647 10649 10650 10652 10653 10656 10658 10659 10659 10659 10659 10658 10660 10662 10662 10663 10662 10661 10663 10662 10664 10670 10672 10675 10678 10676 10675 10678 10680 10682 10685 10687 10691 10694 10696 10697 10697 10696 10696 10701
10551 10553 10556 10558 10560 10562 10564 10565 10566 10567 10568 10569 10570 10571 10572 10573 10575 10577 10579 10582 10584 10585 10587 10589 10591 10594 10595 10598 10602 10603 10604 10606 10608 10611 10613 10615 10616 10618 10620 10623 10625 10628 10630 10633 10634 10635 10637 10638 10640 10641 10642 10644 10646 10648 10649 10650 10652 10653 10652 10652 10653 10654 10654 10655 10655 10654 10654 10654 10656 10663 10666 10666 10666 10667 10670 10672 10674 10676 10679 10681 10685 10688 10690 10690 10690 10690 10692 10697
10544 10547 10549 10552 10554 10556 10557 10559 10560 10561 10563 10564 10565 10566 10567 10568 10570 10571 10574 10576 10577 10579 10581 10583 10585 10587 10588 10592 10596 10596 10597 10600 10601 10604 10606 10607 10609 10612 10615 10618 10620 10622 10624 10627 10627 10628 10630 10630 10632 10633 10634 10637 10638 10639 10641 10642 10644 10645 10646 10645 10646 10646 10645 10647 10648 10646 10646 10647 10651 10657 10660 10657 10656 10660 10665 10667 10668 10670 10673 10676 10679 10682 10684 10683 10683 10684 10687 10692
10537 10539 10542 10545 10547 10549 10551 10552 10554 10556 10558 10559 10560 10561 10561 10563 10564 10566 10568 10569 10571 10573 10575 10576 10578 10580 10581 10586 10590 10590 10590 10593 10595 10598 10599 10601 10604 10606 10610 10612 10613 10614 10617 10619 10620 10621 10622 10622 10624 10625 10626 10628 10629 10631 10633 10634 10635 10638 10638 10638 10638 10637 10637 10639 10640 10640 10639 10641 10645 10650 10654 10650 10647 10653 10659 10660 10663 10665 10667 10670 10673 10676 10677 10676 10676 10678 10682 10686
10529 10532 10535 10538 10541 10542 10544 10546 10548 10550 10553 10555 10556 10556 10556 10557 10558 10560 10562 10563 10565 10567 10569 10571 10572 10575 10576 10579 10584 10584 10584 10586 10588 10591 10593 10595 10597 10600 10603 10604 10605 10607 10609 10612 10612 10612 10613 10614 10615 10617 10618 10619 10621 10623 10624 10626 10627 10629 10629 10629 10630 10631 10631 10632 10633 10633 10633 10634 10638 10643 10647 10644 10639 10645 10652 10654 10658 10659 10660 10664 10667 10669 10670 10669 10669 10671 10675 10679
10522 10525 10528 10531 10534 10535 10537 10539 10541 10544 10547 10550 10551 10550 10550 10551 10552 10554 10556 10558 10559 10561 10563 10565 10567 10569 10570 10573 10577 10578 10579 10580 10581 10584 10586 10588 10590 10593 10595 10595 10597 10599 10601 10603 10604 10604 10606 10607 10607 10609 10610 10611 10612 10614 10616 10617 10619 10620 10621 10622 10623 10624 10624 10623 10624 10627 10627 10628 10632 10636 10639 10639 10634 10637 10644 10648 10651 10653 10654 10656 10659 10661 10662 10662 10663 10665 10668 10671
10514 10518 10521 10524 10527 10528 10531 10533 10535 10539 10542 10544 10545 10545 10544 10544 10546 10548 10550 10552 10554 10556 10558 10560 10562 10563 10564 10567 10569 10572 10574 10575 10575 10576 10578 10580 10582 10585 10586 10588 10590 10591 10593 10595 10596 10596 10599 10600 10600 10602 10602 10601 10603 10605 10607 10608 10609 10611 10614 10616 10616 10616 10616 10616 10617 10620 10621 10622 10625 10628 10631 10633 10631 10632 10637 10640 10645 10647 10646 10648 10651 10654 10656 10656 10657 10659 10661 10664
10507 10510 10514 10517 10519 10521 10524 10526 10529 10533 10536 10539 10540 10539 10538 10539 10541 10543 10545 10547 10548 10551 10553 10554 10555 10556 10558 10559 10562 10565 10567 10569 10570 10570 10571 10573 10576 10578 10579 10581 10583 10584 10585 10587 10587 10589 10592 10593 10594 10594 10592 10591 10594 10596 10597 10598 10600 10604 10607 10608 10609 10609 10608 10608 10609 10611 10614 10616 10618 10621 10625 10627 10627 10627 10630 10634 10638 10640 10639 10641 10644 10647 10650 10650 10651 10652 10654 10656
10499 10503 10506 10509 10512 10514 10516 10519 10523 10527 10530 10533 10533 10532 10532 10533 10536 10538 10540 10541 10543 10545 10546 10547 10548 10549 10550 10552 10556 10560 10562 10563 10564 10565 10565 10566 10569 10571 10572 10574 10575 10576 10577 10578 10581 10583 10585 10586 10586 10583 10581 10583 10586 10587 10588 10590 10593 10597 10599 10600 10601 10601 10599 10600 10602 10603 10608 10612 10612 10615 10619 10621 10622 10621 10624 10628 10632 10633 10633 10634 10636 10639 10643 10644 10644 10646 10647 10649
10492 10495 10499 10501 10504 10507 10509 10512 10517 10520 10523 10527 10527 10526 10527 10529 10531 10533 10534 10535 10537 10539 10540 10541 10543 10542 10543 10547 10552 10554 10556 10558 10557 10558 10559 10560 10563 10564 10564 10566 10567 10568 10569 10572 10575 10575 10577 10578 10574 10571 10573 10576 10578 10579 10581 10583 10586 10589 10591 10592 10593 10592 10590 10591 10595 10596 10602 10607 10606 10608 10613 10614 10615 10616 10619 10623 10626 10626 10626 10626 10629 10633 10636 10637 10638 10640 10642 10644
10484 10488 10491 10494 10497 10500 10502 10505 10510 10513 10517 10520 10520 10520 10521 10524 10526 10528 10528 10528 10530 10533 10534 10536 10538 10535 10537 10544 10548 10549 10551 10551 10550 10551 10553 10555 10557 10557 10557 10559 10560 10560 10563 10566 10568 10567 10568 10567 10562 10563 10567 10569 10570 10571 10573 10576 10579 10581 10583 10584 10583 10582 10583 10585 10588 10591 10596 10601 10601 10603 10607 10607 10608 10611 10614 10617 10620 10619 10618 10620 10624 10627 10630 10631 10633 10635 10638 10641
10477 10480 10484 10486 10489 10492 10495 10498 10503 10506 10510 10513 10513 10514 10516 10518 10521 10523 10522 10520 10522 10528 10530 10531 10532 10530 10534 10540 10541 10544 10546 10544 10543 10545 10548 10549 10549 10551 10552 10553 10553 10555 10557 10558 10558 10558 10558 10556 10554 10557 10559 10560 10562 10563 10565 10568 10570 10572 10574 10574 10573 10574 10578 10579 10581 10586 10591 10595 10596 10597 10600 10601 10601 10605 10608 10611 10614 10613 10612 10614 10618 10621 10624 10625 10627 10630 10634 10637
10469 10473 10476 10478 10482 10485 10487 10491 10495 10499 10503 10506 10507 10508 10510 10513 10516 10516 10516 10513 10515 10524 10526 10526 10526 10526 10530 10534 10535 10538 10540 10538 10536 10538 10542 10542 10542 10545 10546 10546 10547 10549 10549 10549 10549 10550 10549 10547 10546 10549 10550 10551 10553 10554 10557 10559 10561 10564 10565 10565 10565 10567 10572 10573 10575 10581 10586 10588 10589 10591 10595 10595 10595 10598 10601 10604 10607 10606 10606 10608 10611 10614 10616 10618 10622 10627 10630 10633
10461 10465 10468 10470 10474 10478 10480 10484 10488 10492 10496 10498 10500 10503 10505 10508 10510 10509 10509 10507 10509 10517 10521 10521 10522 10521 10524 10527 10529 10531 10533 10533 10529 10529 10535 10536 10535 10538 10539 10540 10541 10540 10539 10540 10541 10542 10540 10538 10539 10540 10541 10543 10545 10547 10549 10551 10553 10556 10556 10557 10559 10561 10565 10568 10570 10575 10579 10580 10583 10587 10588 10588 10588 10591 10594 10597 10600 10600 10600 10602 10605 10607 10609 10613 10618 10622 10625 10627
10452 10456 10459 10463 10467 10471 10473 10476 10480 10485 10489 10491 10493 10497 10499 10502 10503 10503 10503 10502 10502 10510 10515 10517 10517 10516 10517 10519 10522 10524 10526 10526 10522 10523 10528 10527 10527 10531 10531 10533 10534 10531 10530 10531 10534 10534 10530 10529 10531 10532 10534 10536 10538 10539 10540 10543 10547 10548 10549 10552 10555 10556 10558 10562 10565 10568 10571 10574 10577 10580 10580 10580 10581 10584 10586 10590 10592 10593 10594 10596 10598 10601 10604 10608 10612 10616 10619 10621
10444 10448 10452 10456 10461 10464 10465 10467 10472 10478 10481 10484 10487 10490 10493 10495 10496 10497 10497 10496 10497 10503 10507 10510 10511 10512 10512 10512 10515 10517 10519 10519 10517 10518 10520 10518 10519 10523 10524 10525 10524 10521 10522 10524 10526 10524 10520 10521 10525 10526 10527 10529 10530 10530 10532 10537 10540 10540 10542 10547 10549 10549 10552 10556 10559 10561 10564 10568 10570 10572 10574 10574 10574 10577 10580 10583 10585 10587 10588 10589 10592 10595 10598 10602 10606 10611 10613 10614
10435 10440 10445 10449 10453 10456 10458 10460 10466 10471 10473 10476 10480 10484 10486 10488 10489 10490 10491 10491 10492 10495 10499 10502 10504 10506 10507 10506 10508 10510 10511 10511 10511 10511 10512 10511 10512 10515 10516 10515 10514 10514 10516 10518 10517 10514 10512 10515 10519 10520 10521 10521 10521 10522 10527 10531 10532 10532 10536 10541 10542 10544 10547 10550 10553 10555 10558 10562 10563 10564 10567 10569 10568 10570 10574 10576 10578 10581 10583 10584 10586 10589 10592 10596 10601 10604 10605 10607
10427 10433 10439 10441 10444 10447 10450 10453 10459 10463 10466 10469 10474 10477 10479 10480 10482 10484 10484 10485 10487 10488 10491 10495 10498 10499 10500 10501 10501 10502 10503 10504 10504 10504 10505 10506 10505 10506 10507 10505 10506 10508 10510 10509 10507 10505 10506 10509 10511 10513 10514 10513 10513 10517 10522 10524 10524 10526 10531 10535 10536 10539 10541 10544 10548 10550 10553 10556 10555 10557 10562 10564 10563 10563 10568 10570 10572 10575 10577 10578 10581 10583 10586 10590 10594 10597 10599 10601
10419 10426 10431 10433 10435 10440 10444 10447 10451 10455 10458 10462 10466 10469 10472 10473 10475 10477 10477 10479 10481 10482 10485 10488 10490 10491 10493 10494 10495 10495 10496 10497 10497 10497 10499 10500 10498 10498 10499 10498 10499 10501 10502 10501 10499 10498 10500 10502 10504 10506 10506 10506 10508 10513 10516 10517 10518 10522 10526 10529 10531 10534 10536 10540 10543 10545 10549 10550 10548 10551 10557 10559 10557 10557 10561 10564 10566 10569 10571 10573 10576 10579 10582 10586 10589 10593 10596 10599
10412 10418 10422 10424 10427 10432 10437 10440 10443 10447 10451 10454 10458 10462 10464 10466 10469 10469 10469 10471 10474 10476 10479 10481 10482 10483 10485 10486 10487 10488 10489 10489 10490 10490 10492 10493 10491 10491 10491 10491 10492 10493 10494 10494 10491 10491 10494 10497 10499 10499 10500 10501 10504 10508 10510 10511 10514 10517 10521 10524 10527 10530 10532 10536 10538 10541 10544 10543 10542 10547 10552 10554 10552 10550 10554 10559 10561 10563 10566 10569 10572 10576 10579 10583 10587 10591 10595 10598
10405 10409 10413 10417 10420 10425 10430 10433 10436 10439 10443 10447 10451 10454 10457 10460 10461 10461 10462 10465 10469 10471 10472 10473 10474 10476 10477 10479 10480 10481 10482 10482 10483 10483 10484 10485 10485 10484 10484 10484 10485 10486 10488 10486 10483 10486 10491 10492 10493 10493 10495 10497 10500 10502 10504 10506 10509 10512 10517 10520 10523 10526 10529 10531 10534 10536 10538 10537 10538 10543 10548 10548 10547 10545 10550 10555 10557 10559 10562 10565 10569 10572 10575 10579 10583 10587 10590 10593
10397 10402 10406 10409 10412 10417 10422 10426 10429 10432 10436 10440 10444 10447 10450 10452 10452 10453 10456 10459 10462 10463 10464 10465 10466 10468 10470 10472 10473 10474 10475 10475 10476 10476 10476 10478 10478 10477 10477 10478 10479 10480 10481 10479 10478 10483 10487 10487 10488 10488 10490 10492 10494 10497 10498 10500 10504 10509 10514 10517 10520 10522 10524 10526 10528 10530 10532 10532 10535 10539 10543 10544 10542 10541 10546 10551 10552 10555 10557 10561 10564 10567 10570 10574 10576 10579 10581 10584
10391 10395 10399 10402 10405 10409 10415 10419 10423 10426 10429 10433 10437 10440 10442 10444 10444 10447 10450 10452 10453 10454 10456 10457 10459 10461 10463 10465 10466 10467 10468 10468 10468 10468 10469 10470 10471 10470 10470 10471 10472 10473 10474 10473 10474 10478 10481 10481 10482 10483 10484 10487 10489 10490 10492 10496 10502 10506 10510 10513 10515 10516 10518 10520 10523 10525 10526 10528 10531 10535 10538 10539 10536 10536 10541 10546 10548 10550 10553 10556 10559 10562 10564 10567 10569 10572 10574 10574
10385 10389 10393 10396 10399 10403 10407 10412 10416 10420 10423 10426 10429 10432 10434 10437 10439 10441 10443 10444 10445 10446 10448 10450 10452 10454 10456 10458 10458 10459 10461 10461 10461 10461 10462 10463 10463 10463 10464 10465 10466 10467 10468 10468 10469 10472 10474 10475 10476 10477 10479 10482 10484 10486 10490 10494 10498 10501 10505 10508 10509 10511 10513 10516 10518 10520 10522 10524 10527 10530 10533 10532 10530 10532 10538 10542 10544 10546 10548 10551 10554 10556 10558 10561 10563 10565 10567 10569
10380 10384 10387 10390 10393 10397 10401 10405 10409 10413 10416 10418 10421 10424 10427 10431 10433 10434 10435 10437 10438 10439 10441 10443 10445 10446 10449 10450 10450 10451 10453 10454 10454 10455 10455 10456 10456 10457 10458 10460 10461 10462 10462 10463 10464 10466 10469 10471 10472 10474 10475 10477 10480 10483 10487 10491 10493 10497 10501 10503 10504 10507 10510 10512 10514 10515 10518 10520 10522 10525 10527 10525 10526 10530 10534 10537 10540 10542 10543 10546 10548 10551 10553 10555 10558 10561 10564 10568
10375 10378 10382 10385 10388 10392 10395 10399 10403 10406 10409 10412 10414 10416 10420 10424 10425 10426 10428 10429 10430 10431 10433 10435 10437 10439 10441 10442 10442 10443 10445 10446 10448 10448 10449 10449 10450 10451 10452 10454 10455 10456 10456 10457 10458 10461 10464 10466 10468 10469 10470 10473 10476 10479 10483 10486 10489 10493 10496 10498 10500 10503 10505 10507 10509 10512 10514 10516 10518 10520 10521 10520 10522 10525 10528 10531 10534 10536 10538 10540 10543 10546 10549 10551 10554 10557 10562 10566
10370 10373 10377 10380 10383 10386 10389 10392 10396 10399 10402 10405 10407 10409 10413 10416 10418 10419 10420 10421 10422 10423 10425 10427 10429 10431 10433 10434 10435 10435 10437 10439 10441 10442 10443 10443 10444 10445 10446 10447 10449 10449 10450 10451 10453 10456 10458 10460 10463 10464 10465 10469 10472 10475 10478 10482 10485 10488 10491 10494 10497 10499 10500 10502 10505 10507 10509 10511 10513 10515 10516 10516 10517 10520 10522 10525 10529 10531 10533 10536 10539 10543 10545 10547 10550 10554 10559 10562
10365 10368 10371 10374 10377 10380 10382 10386 10389 10392 10395 10398 10400 10402 10405 10408 10410 10412 10412 10413 10414 10415 10417 10419 10421 10422 10425 10427 10428 10428 10428 10432 10434 10435 10436 10437 10437 10438 10440 10442 10444 10444 10445 10447 10449 10451 10453 10455 10458 10459 10461 10465 10468 10470 10474 10478 10481 10483 10487 10490 10492 10493 10495 10497 10500 10502 10504 10507 10509 10510 10511 10511 10512 10514 10517 10521 10524 10527 10530 10533 10536 10539 10541 10544 10548 10552 10556 10560
10360 10364 10366 10369 10372 10374 10377 10380 10383 10386 10389 10391 10393 10395 10398 10400 10403 10404 10405 10406 10406 10407 10409 10411 10413 10415 10417 10419 10420 10421 10421 10424 10427 10428 10429 10431 10431 10432 10434 10437 10439 10440 10441 10443 10445 10447 10448 10450 10453 10455 10457 10460 10464 10466 10470 10473 10477 10479 10482 10485 10487 10489 10491 10493 10496 10498 10500 10502 10504 10505 10506 10506 10507 10510 10514 10517 10520 10523 10527 10530 10533 10536 10539 10542 10546 10550 10554 10558
10356 10358 10361 10363 10366 10369 10372 10375 10377 10379 10382 10383 10386 10388 10390 10392 10395 10397 10398 10398 10398 10400 10401 10403 10405 10407 10408 10410 10413 10414 10414 10416 10419 10421 10423 10425 10427 10428 10429 10431 10434 10435 10437 10439 10440 10442 10444 10445 10447 10451 10454 10457 10460 10462 10465 10469 10472 10475 10478 10480 10483 10485 10487 10490 10492 10494 10496 10498 10500 10501 10502 10502 10504 10507 10510 10514 10517 10521 10525 10528 10531 10534 10537 10540 10543 10547 10551 10557
10351 10353 10355 10358 10361 10364 10367 10369 10371 10373 10375 10376 10378 10381 10382 10385 10388 10390 10391 10391 10391 10393 10394 10395 10397 10398 10400 10402 10405 10408 10408 10408 10411 10415 10417 10420 10422 10423 10424 10426 10429 10431 10433 10435 10436 10437 10439 10440 10442 10447 10450 10453 10455 10458 10461 10465 10469 10471 10474 10476 10479 10481 10483 10485 10487 10489 10492 10494 10495 10497 10498 10499 10500 10503 10506 10510 10514 10518 10522 10525 10527 10530 10534 10537 10541 10544 10548 10555
10347 10348 10351 10354 10356 10359 10362 10363 10365 10367 10368 10370 10372 10374 10375 10378 10381 10383 10384 10384 10384 10385 10386 10387 10388 10389 10391 10394 10397 10400 10400 10401 10404 10408 10412 10415 10417 10418 10420 10422 10424 10426 10429 10431 10431 10432 10435 10436 10439 10443 10447 10449 10451 10454 10457 10461 10465 10467 10470 10472 10474 10476 10478 10481 10483 10486 10488 10490 10491 10493 10494 10495 10497 10500 10503 10507 10512 10515 10518 10521 10524 10527 10531 10535 10539 10542 10545 10551
10342 10344 10347 10349 10352 10354 10356 10357 10359 10361 10362 10364 10365 10367 10368 10370 10373 10375 10377 10377 10376 10376 10376 10378 10380 10382 10384 10387 10390 10392 10394 10395 10398 10403 10407 10410 10412 10415 10417 10418 10420 10422 10424 10426 10428 10429 10431 10433 10434 10438 10442 10445 10448 10451 10454 10457 10460 10462 10465 10467 10470 10472 10474 10476 10479 10482 10484 10485 10487 10488 10489 10491 10494 10497 10501 10505 10508 10511 10514 10517 10520 10523 10526 10530 10535 10538 10540 10544
10338 10340 10343 10345 10347 10349 10351 10352 10354 10355 10356 10358 10359 10360 10362 10363 10365 10367 10369 10370 10369 10368 10367 10369 10373 10375 10376 10380 10382 10385 10388 10390 10393 10398 10402 10405 10408 10411 10412 10414 10415 10418 10420 10422 10424 10425 10426 10429 10431 10433 10437 10441 10444 10447 10449 10451 10454 10457 10460 10463 10465 10467 10469 10472 10475 10478 10479 10481 10482 10483 10484 10487 10491 10494 10498 10501 10504 10507 10510 10513 10515 10518 10522 10526 10529 10532 10534 10536
10335 10337 10339 10341 10343 10344 10346 10347 10349 10350 10351 10352 10353 10354 10355 10356 10357 10359 10361 10361 10361 10360 10360 10362 10366 10368 10370 10373 10376 10379 10383 10386 10389 10393 10396 10400 10404 10406 10408 10410 10412 10413 10415 10418 10420 10421 10423 10425 10427 10429 10433 10436 10439 10442 10444 10447 10450 10453 10456 10459 10461 10463 10465 10468 10471 10473 10475 10476 10478 10479 10480 10483 10487 10491 10494 10497 10500 10503 10506 10509 10512 10514 10518 10522 10524 10527 10529 10531
10331 10333 10335 10337 10338 10340 10341 10342 10344 10344 10345 10346 10347 10347 10348 10348 10348 10350 10352 10353 10353 10353 10353 10355 10359 10362 10364 10367 10370 10373 10378 10381 10384 10388 10392 10395 10399 10401 10403 10405 10406 10408 10411 10413 10416 10417 10419 10421 10423 10425 10429 10433 10436 10438 10440 10443 10446 10449 10451 10454 10457 10459 10462 10464 10467 10469 10471 10473 10474 10475 10477 10480 10484 10487 10489 10492 10496 10499 10503 10505 10508 10511 10514 10518 10520 10523 10526 10528
10328 10330 10332 10333 10334 10336 10337 10338 10339 10339 10340 10341 10341 10341 10341 10341 10342 10343 10344 10346 10346 10346 10347 10349 10352 10355 10357 10360 10363 10367 10372 10375 10379 10383 10387 10389 10392 10394 10395 10397 10400 10403 10405 10408 10410 10412 10414 10417 10419 10421 10425 10429 10432 10434 10436 10438 10442 10445 10447 10449 10452 10455 10457 10460 10462 10465 10467 10469 10470 10471 10474 10476 10480 10483 10486 10489 10492 10495 10498 10501 10504 10507 10511 10514 10517 10519 10522 10525
10326 10327 10328 10330 10331 10332 10333 10334 10334 10335 10335 10335 10335 10335 10335 10335 10335 10336 10337 10339 10339 10340 10341 10342 10344 10347 10350 10353 10357 10361 10365 10369 10373 10377 10381 10383 10386 10388 10390 10393 10395 10397 10400 10403 10405 10407 10410 10412 10414 10417 10420 10424 10427 10429 10431 10434 10437 10440 10442 10445 10448 10451 10453 10456 10458 10460 10463 10464 10466 10468 10470 10472 10475 10479 10482 10485 10488 10490 10493 10497 10500 10503 10507 10510 10513 10516 10519 10521
10323 10324 10326 10327 10328 10329 10330 10330 10330 10330 10330 10330 10330 10329 10329 10329 10329 10329 10330 10331 10331 10332 10334 10335 10337 10339 10342 10345 10349 10354 10358 10362 10367 10371 10375 10378 10379 10382 10386 10388 10390 10392 10395 10397 10399 10402 10405 10407 10409 10411 10415 10419 10422 10425 10427 10429 10432 10435 10438 10441 10443 10446 10449 10451 10453 10456 10458 10460 10461 10464 10466 10468 10471 10475 10479 10482 10485 10487 10490 10494 10497 10500 10503 10506 10509 10512 10515 10517
10321 10322 10323 10324 10325 10326 10326 10326 10326 10326 10325 10325 10325 10324 10323 10323 10322 10322 10323 10323 10323 10324 10326 10327 10329 10331 10334 10336 10341 10346 10351 10356 10361 10365 10369 10371 10372 10376 10380 10384 10387 10390 10391 10393 10394 10397 10400 10403 10405 10408 10411 10414 10417 10420 10423 10425 10428 10430 10433 10436 10438 10441 10444 10447 10449 10452 10453 10455 10457 10460 10462 10464 10467 10470 10474 10478 10481 10484 10488 10491 10493 10497 10499 10502 10505 10508 10511 10514
10319 10320 10321 10322 10323 10323 10323 10323 10322 10322 10321 10320 10319 10318 10317 10317 10316 10316 10316 10316 10316 10317 10318 10320 10321 10324 10327 10329 10333 10339 10344 10349 10354 10358 10361 10364 10367 10370 10374 10377 10378 10379 10381 10384 10388 10392 10395 10399 10402 10404 10407 10410 10413 10416 10418 10420 10422 10426 10428 10431 10434 10437 10440 10442 10445 10447 10449 10451 10453 10456 10458 10461 10463 10467 10470 10474 10477 10480 10483 10486 10490 10493 10496 10498 10501 10504 10508 10511